Weather History for Ft Lauderdale, FL

Change the Weather History Date:

Thursday, September 26, 2013

  Actual Average Record
Temperature  
Mean Temperature 84 °F 83 °F  
Max Temperature 91 °F 88 °F 94 °F (1940)
Min Temperature 77 °F 77 °F 61 °F (1965)
Degree Days  
Heating Degree Days 0 0  
Month to date heating degree days 0 0  
Since 1 July heating degree days 0 0  
Cooling Degree Days 19 18  
Month to date cooling degree days 448 474  
Year to date cooling degree days 3495 3640  
Growing Degree Days 33 (Base 50)    
Moisture  
Dew Point 76 °F    
Average Humidity 79    
Maximum Humidity 94    
Minimum Humidity 64    
Precipitation  
Precipitation 0.03 in 0.27 in 1.69 in (2004)
Month to date precipitation 3.42 7.56  
Year to date precipitation 60.46 48.63  
Snow  
Snow 0.00 in - - ()
Month to date snowfall 0.0  
Since 1 July snowfall 0.0  
Since 1 September snowfall 0.0  
Snow Depth 0.00 in    
Sea Level Pressure  
Sea Level Pressure 29.84 in    
Wind  
Wind Speed 10 mph (WSW)    
Max Wind Speed 25 mph    
Max Gust Speed 35 mph    
Visibility 10 miles    
Events Rain    
T = Trace of Precipitation, MM = Missing Value Source: NWS Daily Summary

Daily Weather History Graph

Daily Weather History Graph

Search for Another Location

Airport:

Trip Planner

Search our weather history database for the weather conditions in past years. The results will help you decide how hot, cold, wet, or windy it might be!

Date:

Astronomy

Sep. 26, 2013 Rise Set
Actual Time 7:10 AM EDT 7:12 PM EDT
Civil Twilight 6:47 AM EDT 7:35 PM EDT
Nautical Twilight 6:21 AM EDT 8:02 PM EDT
Astronomical Twilight 5:54 AM EDT 8:28 PM EDT
Moon No Moon Rise 1:33 PM EDT (9/26)
Length of Visible Light 12h 47m
Length of Day
12h 01m
Waning Gibbous, 55% of the Moon is Illuminated
Sep 26
Waning Gibbous
Sep 26
Last Quarter
Oct 4
New
Oct 11
First Quarter
Oct 18
Full

Hourly Weather History & Observations

Time (EDT) Temp. Heat Index Dew Point Humidity Pressure Visibility Wind Dir Wind Speed Gust Speed Precip Events Conditions
12:53 AM 78.1 °F - 75.0 °F 90% 29.85 in 10.0 mi Calm Calm - N/A   Clear
1:53 AM 77.0 °F - 75.0 °F 94% 29.85 in 10.0 mi West 3.5 mph - N/A   Clear
2:53 AM 78.1 °F - 75.0 °F 90% 29.84 in 10.0 mi WSW 5.8 mph - N/A   Clear
3:53 AM 78.1 °F - 75.0 °F 90% 29.83 in 10.0 mi WSW 6.9 mph - N/A   Clear
4:53 AM 78.1 °F - 73.9 °F 87% 29.83 in 10.0 mi WSW 6.9 mph - N/A   Clear
5:53 AM 78.1 °F - 75.0 °F 90% 29.84 in 10.0 mi WSW 8.1 mph - N/A   Clear
6:53 AM 79.0 °F - 75.9 °F 90% 29.85 in 10.0 mi WSW 5.8 mph - N/A   Clear
7:53 AM 79.0 °F - 75.9 °F 90% 29.86 in 10.0 mi SW 4.6 mph - N/A   Clear
8:53 AM 82.0 °F 91.0 °F 78.1 °F 88% 29.87 in 10.0 mi SW 8.1 mph - N/A   Partly Cloudy
9:53 AM 86.0 °F 96.9 °F 77.0 °F 74% 29.87 in 10.0 mi WSW 13.8 mph 19.6 mph N/A   Scattered Clouds
10:53 AM 87.1 °F 97.3 °F 75.9 °F 69% 29.88 in 10.0 mi West 11.5 mph - N/A   Mostly Cloudy
11:10 AM 87.8 °F 97.6 °F 75.2 °F 66% 29.87 in 10.0 mi West 13.8 mph 20.7 mph N/A   Mostly Cloudy
11:53 AM 88.0 °F 97.5 °F 75.0 °F 65% 29.86 in 10.0 mi West 18.4 mph - N/A   Mostly Cloudy
12:53 PM 89.1 °F 99.1 °F 75.0 °F 63% 29.83 in 10.0 mi SW 16.1 mph 23.0 mph N/A   Mostly Cloudy
1:53 PM 89.1 °F 104.4 °F 79.0 °F 72% 29.83 in 10.0 mi West 12.7 mph - 0.01 in   Mostly Cloudy
2:53 PM 81.0 °F 87.9 °F 77.0 °F 88% 29.81 in 7.0 mi West 11.5 mph - 0.00 in Rain Light Rain
3:53 PM 87.1 °F 96.3 °F 75.0 °F 67% 29.83 in 10.0 mi NW 19.6 mph 26.5 mph 0.01 in   Mostly Cloudy
4:53 PM 84.0 °F 91.2 °F 73.9 °F 72% 29.82 in 10.0 mi WNW 11.5 mph 16.1 mph 0.00 in   Mostly Cloudy
5:53 PM 82.9 °F 89.4 °F 73.9 °F 74% 29.81 in 10.0 mi West 10.4 mph - N/A   Mostly Cloudy
6:53 PM 82.0 °F 89.4 °F 75.9 °F 82% 29.81 in 10.0 mi West 8.1 mph - N/A   Mostly Cloudy
7:53 PM 82.0 °F 88.6 °F 75.0 °F 79% 29.81 in 10.0 mi West 8.1 mph - N/A   Partly Cloudy
8:53 PM 80.6 °F 86.2 °F 75.2 °F 84% 29.83 in 10.0 mi West 9.2 mph - N/A   Partly Cloudy
9:53 PM 81.0 °F 87.3 °F 75.9 °F 85% 29.85 in 10.0 mi West 9.2 mph - 0.01 in   Partly Cloudy
10:53 PM 80.1 °F 85.4 °F 75.9 °F 87% 29.85 in 10.0 mi West 5.8 mph - N/A   Clear
11:53 PM 80.1 °F 85.4 °F 75.9 °F 87% 29.85 in 10.0 mi West 6.9 mph - N/A   Partly Cloudy